TimeCDT,TemperatureF,Dew PointF,Humidity,Sea Level PressureIn,VisibilityMPH,Wind Direction,Wind SpeedMPH,Gust SpeedMPH,PrecipitationIn,Events,Conditions,WindDirDegrees,DateUTC
12:12 AM,71.6,66.2,83,29.89,10.0,NE,6.9,-,N/A,,Mostly Cloudy,50,2013-06-12 05:12:00
12:33 AM,69.8,66.2,88,29.89,10.0,ENE,4.6,-,N/A,Thunderstorm,Thunderstorm,60,2013-06-12 05:33:00
12:53 AM,69.8,66.2,88,29.86,10.0,East,10.4,-,N/A,Rain-Thunderstorm,Light Thunderstorms and Rain,80,2013-06-12 05:53:00
1:12 AM,69.8,64.4,83,29.82,10.0,East,12.7,18.4,N/A,Thunderstorm,Thunderstorm,100,2013-06-12 06:12:00
1:33 AM,69.8,64.4,83,29.84,10.0,ENE,6.9,-,N/A,Thunderstorm,Clear,70,2013-06-12 06:33:00
1:53 AM,69.8,64.4,83,29.84,10.0,ENE,6.9,-,N/A,,Clear,60,2013-06-12 06:53:00
2:12 AM,69.8,64.4,83,29.81,7.0,ENE,10.4,16.1,N/A,Thunderstorm,Clear,60,2013-06-12 07:12:00
2:33 AM,69.8,64.4,83,29.81,7.0,ENE,6.9,-,N/A,Thunderstorm,Scattered Clouds,60,2013-06-12 07:33:00
2:53 AM,69.8,64.4,83,29.83,7.0,East,5.8,-,N/A,,Clear,90,2013-06-12 07:53:00
3:13 AM,69.8,64.4,83,29.84,7.0,East,6.9,-,N/A,,Clear,80,2013-06-12 08:13:00
3:33 AM,69.8,64.4,83,29.84,7.0,NE,9.2,-,N/A,,Scattered Clouds,50,2013-06-12 08:33:00
3:52 AM,69.8,64.4,83,29.83,7.0,East,5.8,-,N/A,,Scattered Clouds,80,2013-06-12 08:52:00
4:13 AM,69.8,64.4,83,29.83,7.0,East,8.1,-,N/A,,Scattered Clouds,90,2013-06-12 09:13:00
4:33 AM,69.8,64.4,83,29.80,7.0,ENE,6.9,-,N/A,Thunderstorm,Scattered Clouds,70,2013-06-12 09:33:00
4:52 AM,68.0,64.4,88,29.79,7.0,ENE,8.1,-,N/A,,Scattered Clouds,70,2013-06-12 09:52:00
5:13 AM,69.8,62.6,78,29.76,7.0,East,11.5,16.1,N/A,,Scattered Clouds,80,2013-06-12 10:13:00
5:33 AM,69.8,60.8,73,29.73,10.0,East,16.1,20.7,N/A,,Clear,80,2013-06-12 10:33:00
5:53 AM,69.8,60.8,73,29.76,10.0,East,9.2,17.3,N/A,,Clear,90,2013-06-12 10:53:00
6:13 AM,68.0,62.6,83,29.80,10.0,SE,9.2,-,N/A,Rain-Thunderstorm,Thunderstorms and Rain,130,2013-06-12 11:13:00
6:33 AM,66.2,62.6,88,29.81,10.0,NNE,4.6,-,N/A,Rain-Thunderstorm,Thunderstorms and Rain,20,2013-06-12 11:33:00
6:52 AM,66.2,62.6,88,29.80,10.0,NE,4.6,-,N/A,Rain-Thunderstorm,Light Thunderstorms and Rain,50,2013-06-12 11:52:00
7:13 AM,66.2,62.6,88,29.80,10.0,NE,9.2,-,N/A,,Overcast,50,2013-06-12 12:13:00
7:33 AM,66.2,62.6,88,29.79,7.0,ENE,5.8,-,0.01,Thunderstorm,Mostly Cloudy,60,2013-06-12 12:33:00
7:53 AM,66.2,62.6,88,29.80,10.0,ENE,3.5,-,0.01,,Scattered Clouds,60,2013-06-12 12:53:00
8:13 AM,66.2,62.6,88,29.81,10.0,NNW,10.4,-,N/A,Thunderstorm,Mostly Cloudy,330,2013-06-12 13:13:00
8:33 AM,66.2,62.6,88,29.83,7.0,NW,18.4,24.2,N/A,Thunderstorm,Overcast,320,2013-06-12 13:33:00
8:52 AM,64.4,60.8,88,29.83,10.0,North,13.8,23.0,N/A,Thunderstorm,Thunderstorm,350,2013-06-12 13:52:00
9:13 AM,60.8,59.0,94,29.84,7.0,North,10.4,23.0,N/A,Rain-Thunderstorm,Light Thunderstorms and Rain,360,2013-06-12 14:13:00
9:33 AM,60.8,57.2,88,29.84,7.0,NNE,13.8,-,N/A,Rain-Thunderstorm,Light Thunderstorms and Rain,30,2013-06-12 14:33:00
9:53 AM,62.6,60.8,94,29.83,5.0,NNE,10.4,18.4,N/A,,Light Drizzle,20,2013-06-12 14:53:00
10:13 AM,64.4,60.8,88,29.81,5.0,NE,13.8,21.9,N/A,,Mostly Cloudy,40,2013-06-12 15:13:00
10:33 AM,64.4,60.8,88,29.80,10.0,NE,10.4,-,N/A,,Scattered Clouds,50,2013-06-12 15:33:00
10:53 AM,66.2,62.6,88,29.79,10.0,ENE,9.2,16.1,N/A,,Scattered Clouds,70,2013-06-12 15:53:00
11:13 AM,68.0,64.4,88,29.79,10.0,East,15.0,-,N/A,,Scattered Clouds,90,2013-06-12 16:13:00
11:33 AM,71.6,66.2,83,29.79,10.0,East,13.8,17.3,N/A,,Scattered Clouds,90,2013-06-12 16:33:00
11:53 AM,71.6,66.2,83,29.78,10.0,East,10.4,-,N/A,,Clear,90,2013-06-12 16:53:00
12:13 PM,73.4,68.0,83,29.78,10.0,East,11.5,-,N/A,,Clear,100,2013-06-12 17:13:00
12:32 PM,73.4,66.2,78,29.79,10.0,NE,10.4,-,N/A,,Clear,40,2013-06-12 17:32:00
12:53 PM,71.6,66.2,83,29.78,10.0,NNE,13.8,-,N/A,,Clear,30,2013-06-12 17:53:00
1:13 PM,73.4,66.2,78,29.78,10.0,NE,12.7,-,N/A,,Clear,50,2013-06-12 18:13:00
1:32 PM,75.2,68.0,78,29.78,10.0,NE,11.5,16.1,N/A,,Clear,50,2013-06-12 18:32:00
1:53 PM,73.4,68.0,83,29.79,10.0,NNE,11.5,-,N/A,,Scattered Clouds,20,2013-06-12 18:53:00
2:13 PM,69.8,64.4,83,29.80,10.0,North,10.4,-,N/A,,Overcast,360,2013-06-12 19:13:00
2:32 PM,66.2,64.4,94,29.80,10.0,North,8.1,-,N/A,,Overcast,10,2013-06-12 19:32:00
2:53 PM,66.2,64.4,94,29.79,10.0,NNE,13.8,18.4,N/A,Rain,Rain,30,2013-06-12 19:53:00
3:13 PM,66.2,64.4,94,29.81,7.0,NNW,12.7,17.3,0.17,Rain-Thunderstorm,Heavy Thunderstorms and Rain,340,2013-06-12 20:13:00
3:32 PM,66.2,64.4,94,29.78,10.0,NNE,12.7,20.7,0.20,Rain-Thunderstorm,Light Thunderstorms and Rain,30,2013-06-12 20:32:00
3:53 PM,66.2,62.6,88,29.79,10.0,NNE,17.3,21.9,0.21,Rain-Thunderstorm,Light Thunderstorms and Rain,30,2013-06-12 20:53:00
4:13 PM,66.2,62.6,88,29.82,10.0,NW,11.5,-,0.06,Rain,Rain,310,2013-06-12 21:13:00
4:32 PM,66.2,62.6,88,29.81,4.0,NNW,12.7,-,0.49,Rain-Thunderstorm,Heavy Thunderstorms and Rain,340,2013-06-12 21:32:00
4:53 PM,66.2,62.6,88,29.82,10.0,NNW,11.5,-,0.55,Rain,Light Rain,340,2013-06-12 21:53:00
5:13 PM,66.2,62.6,88,29.84,10.0,NW,12.7,-,0.01,Rain,Rain,320,2013-06-12 22:13:00
5:32 PM,64.4,60.8,88,29.84,10.0,NW,17.3,20.7,0.03,Rain,Rain,320,2013-06-12 22:32:00
5:53 PM,64.4,60.8,88,29.85,10.0,NNW,19.6,24.2,0.06,Rain,Rain,330,2013-06-12 22:53:00
6:13 PM,64.4,60.8,88,29.86,10.0,NW,19.6,26.5,0.07,Rain,Heavy Rain,320,2013-06-12 23:13:00
6:32 PM,64.4,60.8,88,29.86,10.0,NNW,16.1,24.2,0.11,Rain,Rain,330,2013-06-12 23:32:00
6:53 PM,64.4,60.8,88,29.86,10.0,NNW,15.0,-,0.14,Rain,Rain,340,2013-06-12 23:53:00
7:13 PM,64.4,60.8,88,29.87,10.0,NNW,13.8,20.7,0.01,Rain,Light Rain,340,2013-06-13 00:13:00
7:33 PM,66.2,60.8,83,29.87,10.0,North,12.7,18.4,0.01,,Light Drizzle,350,2013-06-13 00:33:00
7:53 PM,66.2,59.0,78,29.87,10.0,NNW,15.0,19.6,0.01,,Scattered Clouds,340,2013-06-13 00:53:00
8:13 PM,66.2,57.2,73,29.88,10.0,NNW,13.8,-,N/A,,Mostly Cloudy,340,2013-06-13 01:13:00
8:33 PM,66.2,55.4,68,29.88,10.0,NNW,12.7,-,N/A,,Overcast,330,2013-06-13 01:33:00
8:53 PM,64.4,55.4,73,29.89,10.0,NNW,12.7,18.4,N/A,,Mostly Cloudy,330,2013-06-13 01:53:00
9:12 PM,64.4,55.4,73,29.90,10.0,NNW,13.8,18.4,N/A,,Mostly Cloudy,330,2013-06-13 02:12:00
9:33 PM,66.2,57.2,73,29.91,10.0,NNW,15.0,-,N/A,,Mostly Cloudy,330,2013-06-13 02:33:00
9:53 PM,64.4,60.8,88,29.93,10.0,NW,12.7,-,N/A,,Mostly Cloudy,320,2013-06-13 02:53:00
10:12 PM,64.4,60.8,88,29.94,10.0,NW,13.8,17.3,N/A,,Scattered Clouds,320,2013-06-13 03:12:00
10:33 PM,64.4,59.0,83,29.95,10.0,NW,13.8,18.4,N/A,,Clear,320,2013-06-13 03:33:00
10:53 PM,64.4,59.0,83,29.96,10.0,NW,16.1,19.6,N/A,,Mostly Cloudy,320,2013-06-13 03:53:00
11:12 PM,64.4,57.2,77,29.96,10.0,NNW,13.8,-,N/A,,Scattered Clouds,330,2013-06-13 04:12:00
11:33 PM,64.4,55.4,73,29.96,10.0,NNW,12.7,-,N/A,,Clear,330,2013-06-13 04:33:00
11:53 PM,64.4,55.4,73,29.97,10.0,NW,11.5,17.3,N/A,,Clear,320,2013-06-13 04:53:00